weather.gov     
National Weather Service

Terminal Aerodrome Forecast
NWS Homepage
This page is being discontinued on March 12, 2014.
The same data is available at this site. Please update your bookmarks.
Thank you, and we apologize for the inconvenience.
Please send an email to SR-SRH.Webmaster@noaa.gov with any concerns.


Current Version
Previous Version:    01  02  03  04  05  06  07  08  09  10  11  12  13  14  15  16  17  18  19  20  21  22  23  24  25  26  27  28  29  30  
[Printable]
220
FTUS42 KMLB 011100
TAFMLB
TAF
KMLB 011132Z 0112/0212 18004KT P6SM SCT250
     FM011400 19006KT P6SM SCT030 SCT250
     FM011700 12010KT P6SM VCTS BKN035CB
      TEMPO 0119/0123 3SM TSRA BKN020CB OVC040
     FM020000 14006KT P6SM SCT040 BKN100 OVC120=


U.S. Dept. of Commerce
NOAA National Weather Service
1325 East West Highway
Silver Spring, MD 20910
E-mail: w-nws.webmaster@noaa.gov
Page last modified: May 16, 2007
NATIONAL WEATHER SERVICE: for Safety, for Work, for Fun - FOR LIFE